www.pogodaiklimat.ru

Погода и климат >> Архив погоды >> Мозамбик >> Шаи-Шаи


ПОГОДА в Шаи-Шаи

  • Прогноз погоды в Шаи-Шаи
  • Монитор погоды в Шаи-Шаи

АРХИВ ПОГОДЫ в Шаи-Шаи

Время (UTC), дата Ветер
(напр.,м/с)
 
Видим.   Явления Облачность Т
(С)
Тd
(С)
f
(%)
Тe
(С)
Тes
(С)
Комфортность P
(гПа)
Po
(гПа)
Тmin
(С)
Tmax
(С)
R
(мм)
R24
(мм)
S
(см)
18 13.07 штиль 0 30 км ясно +17.5 +16.0 91 +17 +17 1022.0 1021.4 +25.3
21 13.07 штиль 0 30 км ясно +14.0 +13.3 96 +14 +14 1022.5 1021.9
00 14.07 штиль 0 500 м туман ясно +13.8 +13.6 99 +13 +13 1021.7 1021.1
03 14.07 штиль 0 200 м туман ясно +12.5 +12.3 99 +12 +12 1022.1 1021.5
06 14.07 штиль 0 200 м туман ясно +14.5 +14.5 100 +14 +17 1023.1 1022.5 +12.1
09 14.07 штиль 0 400 м туман ясно +17.8 +17.6 99 +18 +31 опасность
простуды
1023.8 1023.2
12 14.07 Ю 2 30 км {туман} 4/4 600 м
[Cu med, cong]
+25.0 +16.6 60 +29 +33 душно 1020.8 1020.2
15 14.07 ЮВ 4 30 км 4/4 600 м
[Cu med, cong]
+22.4 +18.3 78 +28 +28 душно 1020.4 1019.8
18 14.07 штиль 0 30 км ясно +18.7 +17.6 93 +20 +20 1021.6 1021.0 +25.4
21 14.07 штиль 0 25 км ясно +19.2 +17.2 88 +21 +21 комфорт 1021.9 1021.3
00 15.07 штиль 0 30 км ясно +18.5 +16.7 89 +19 +19 1021.4 1020.8
03 15.07 штиль 0 30 км ясно +16.9 +15.5 91 +17 +17 1021.9 1021.3
06 15.07 штиль 0 30 км ясно +17.5 +16.7 95 +17 +20 1023.7 1023.1 +14.4
09 15.07 С 3 30 км 1/1 600 м
[Cu hum]
+24.5 +16.7 62 +28 +36 душно 1023.8 1023.2
12 15.07 Ю 5 30 км ясно +27.0 +13.1 42 +29 +32 жарко 1020.9 1020.3
15 15.07 ЮВ 4 30 км ясно +23.5 +17.4 69 +27 +27 душно 1020.9 1020.3
18 15.07 В 4 30 км ясно +21.1 +18.4 85 +25 +25 комфорт 1021.5 1020.9 +28.0
21 15.07 СВ 6 30 км ясно +20.3 +16.9 81 +23 +23 комфорт 1022.2 1021.6
00 16.07 штиль 0 30 км ясно +19.2 +16.7 85 +21 +21 комфорт 1022.4 1021.8
03 16.07 штиль 0 30 км 1/1 600 м
[]
+18.0 +16.5 91 +18 +18 1022.6 1022.0
06 16.07 штиль 0 30 км 3/3 600 м
[Cu med, cong]
+18.0 +17.0 94 +18 +20 1024.7 1024.1 +17.5
09 16.07 С 2 30 км 1/1 600 м
[Cu hum]
+25.6 +16.6 58 +29 +39 душно 1024.7 1024.1
12 16.07 С 2 30 км 3/3 600 м
[Cu med, cong]
+27.3 +15.4 48 +30 +35 душно 1022.1 1021.5
15 16.07 ЮВ 3 30 км ясно +23.0 +17.4 71 +28 +28 душно 1021.7 1021.1
18 16.07 В 5 30 км ясно +20.1 +17.7 86 +23 +23 комфорт 1023.3 1022.7 +27.8
21 16.07 В 5 30 км ясно +19.7 +16.9 84 +22 +22 комфорт 1023.5 1022.9
00 17.07 штиль 0 30 км ясно +18.2 +16.2 88 +19 +19 1023.1 1022.5
03 17.07 штиль 0 30 км ясно +15.7 +14.8 94 +15 +15 1022.8 1022.2
06 17.07 штиль 0 30 км ясно +17.5 +15.8 90 +17 +20 1023.9 1023.3 +15.1
09 17.07 С 5 30 км ясно +25.1 +16.0 57 +28 +34 жарко 1023.7 1023.1
12 17.07 С 3 30 км ясно +28.6 +13.3 39 +30 +36 жарко 1020.5 1019.9
15 17.07 С 2 30 км ясно +26.2 +14.6 49 +29 +29 жарко 1019.9 1019.3
21 17.07 штиль 0 20 км ясно +19.6 +12.7 64 +21 +21 комфорт 1020.5 1019.9
00 18.07 СВ 5 20 км ясно +19.8 +12.7 64 +21 +21 комфорт 1020.0 1019.4
03 18.07 штиль 0 20 км ясно +18.5 +13.2 71 +19 +19 1019.1 1018.5
06 18.07 С 4 30 км ясно +17.2 +14.2 83 +17 +19 1020.6 1020.0 +15.4
09 18.07 СЗ 6 30 км ясно +25.5 +11.5 42 +27 +31 жарко 1020.0 1019.4
12 18.07 С 7 30 км ясно +29.5 +11.1 32 +30 +32 жарко 1017.4 1016.8
15 18.07 СВ 2 30 км ясно +27.2 +13.8 44 +29 +29 жарко 1016.3 1015.7
18 18.07 СВ 3 30 км ясно +21.0 +8.7 45 +23 +23 комфорт 1016.4 1015.8 +30.0
21 18.07 СВ 7 30 км ясно +20.6 +9.1 48 +22 +22 комфорт 1016.4 1015.8
00 19.07 СВ 8 30 км ясно +19.1 +8.8 51 +19 +19 1015.4 1014.8
03 19.07 С 7 30 км ясно +15.9 +10.4 70 +14 +14 1014.4 1013.8
06 19.07 С 6 30 км ясно +18.0 +12.8 72 +17 +18 1014.8 1014.2 +14.1
09 19.07 С 7 30 км ясно +26.0 +13.5 46 +28 +31 жарко 1026.0 1025.4
12 19.07 С 6 30 км ясно +30.5 +10.5 29 +30 +33 жарко 1009.8 1009.2
15 19.07 С 3 30 км ясно +27.5 +10.3 34 +28 +28 жарко 1008.9 1008.3
18 19.07 СВ 2 30 км ясно +25.5 +7.4 32 +26 +26 жарко 1009.0 1008.4 +31.0
21 19.07 С 3 30 км ясно +23.5 +6.1 33 +24 +24 комфорт 1009.0 1008.4
00 20.07 штиль 0 30 км ясно +18.0 +5.7 44 +18 +18 1008.8 1008.2
03 20.07 штиль 0 30 км 3/3 600 м
[Cu med, cong]
+16.5 +6.3 51 +16 +16 1009.8 1009.2
06 20.07 Ю 5 30 км 1/1 600 м
[Cu med, cong]
+23.0 +15.3 62 +27 +28 душно 1012.1 1011.5 +16.0
09 20.07 Ю 6 30 км 4/4 600 м
[Cu med, cong]
+24.4 +16.6 62 +28 +30 душно 1013.9 1013.3
12 20.07 Ю 8 30 км 5/5 600 м
[Cu med, cong]
+24.0 +16.3 62 +27 +28 жарко 1013.1 1012.5
15 20.07 Ю 9 30 км 9/9 600 м
[Cu med, cong]
+20.0 +16.7 81 +22 +22 комфорт 1015.8 1015.2

 

Местоположение метеостанции Шаи-Шаи (Мозамбик): широта -25.05 долгота 33.63 высота над уровнем моря 5 м.

В архиве по умолчанию представлена погода в Шаи-Шаи за последнюю неделю. Архивные данные за месяц целиком и за предыдущие месяцы, начиная с января 2011 года, Вы можете получить, выбрав интересующий диапазон дат из раскрывающегося списка и нажав кнопку "Ввод!".


*Определитесь, кто Вы:
робот инопланетянин человек

Внимание! Время в таблицах - всемирное. Для получения местного времени необходимо прибавить поправку, которая равна 2 ч.

Смотрите также архив погоды в соседних городах и на ближайших метеорологических станциях:

Погода в Панда (Мозамбик) (119 км)
Погода в Мапуту (Мозамбик) (143 км)
Погода в Коматидрааи (Южная Африка) (181 км)
Погода в Чангалане (Мозамбик) (200 км)
Погода в Скукузе (Южная Африка) (205 км)
Погода в Вувулане (Свазиленд) (205 км)
Погода в Иньямбане (Мозамбик) (220 км)
Погода в Ситеки (Свазиленд) (228 км)
Погода в Майиване (Свазиленд) (232 км)
Погода в Пиггс-Пике (Свазиленд) (260 км)

Пояснения к столбцам:

Ветер - указаны скорость ветра в м/с - средняя за 10 мин, порывы в срок и между сроками (в фигурных скобках) и направление, откуда дует ветер: С - северный, СВ - северо-восточный, В - восточный, ЮВ - юго-восточный, Ю - южный, ЮЗ - юго-западный, З - западный, СЗ - северо-западный.
Видимость - горизонтальная дальность видимости в метрах или километрах. При видимости от 1 до 10 км при отсутствии осадков обычно наблюдается дымка, при ухудшении видимости до 1 км и менее - туман. В сухую погоду видимость может ухудшаться дымом, пылью или мглою.
Явления - указаны атмосферные явления, наблюдавшиеся в срок или в последний час перед сроком; фигурными скобками обозначены явления, наблюдавшиеся между сроками (за 1-3 часа до срока); квадратными скобками обозначены град или гололедные отложения с указанием их диаметра в мм.
Облачность - указаны через наклонную черту общая и нижняя облачность в баллах и высота нижней границы облаков в метрах; квадратными скобками обозначены формы облаков: Ci - перистые, Cs - перисто-слоистые, Cc - перисто-кучевые, Ac - высококучевые, As - высокослоистые, Sc - слоисто-кучевые, Ns - слоисто-дождевые, Cu - кучевые, Cb - кучево-дождевые. Подробнее классификацию облаков см. в Атласе облаков (PDF).
T - Температура воздуха - температура, измеренная на высоте 2 м над землей.
Td - Температура точки росы - температура, при понижении до которой содержащийся в воздухе водяной пар достигнет насыщения.
f - Относительная влажность воздуха - влажноcть воздуха, измеренная на высоте 2 м над землей.
Te - Эффективная температура - температура, которую ощущает одетый по сезону человек в тени. Характеристика душности погоды. При расчете учитывается влияние влажности воздуха и скорости ветра на теплоощущения человека.
Tes - Эффективная температура на солнце - температура, которую ощущает человек, с поправкой на солнечный нагрев. Характеристика знойности погоды. Зависит от высоты солнца над горизонтом, облачности и скорости ветра. Ночью, в пасмурную погоду, а также при ветре 12 м/с и более поправка равна нулю.
P - Атмосферное давление - приведенное к уровню моря атмосферное давление.
Po - Атмосферное давление - измеренное на уровне метеостанции атмосферное давление.
Tmin - Минимальная температура - минимум температуры воздуха на высоте 2 м над землей.
Tmax - Максимальная температура - максимум температуры воздуха на высоте 2 м над землей.
R - Количество осадков - Количество выпавших осадков за период времени, мм. При наведении курсора мыши на число - период времени, за который выпало указанное количество осадков.
R24 - Количество осадков - Количество выпавших осадков за 24 часа, мм.
S - Снежный покров - Высота снежного покрова, см. При наведении курсора мыши на число - состояние снежного покрова и степень покрытия местности в баллах.